Location: Pordenone
(45.9640°N, 12.6580°E)
Time: 17:02:47
(UTC+02:00)

ISS - Pass Details

Date: 17 May 2021
Orbit: 417 x 422 km, 51.6° (Epoch: 18 June)

Event Time Altitude Azimuth Distance (km) Brightness Sun altitude
Rises 03:41:17 0° 294° (WNW) 2,374 -0.1 -15.8°
Reaches altitude 10° 03:43:28 10° 286° (WNW) 1,507 -1.2 -15.6°
Maximum altitude 03:46:38 38° 217° (SW) 660 -3.3 -15.2°
Drops below altitude 10° 03:49:48 10° 148° (SSE) 1,501 -1.1 -14.9°
Sets 03:51:58 0° 140° (SE) 2,362 0.0 -14.6°
